Regional Weather Roundup
Issued by NWS

Home | Current Version | Previous Version | Graphics & Text | Print | Product List | Glossary Off
Versions: 1 2 3 4 5 6 7 8 9 10 11 12 13 14 15 16 17 18 19 20 21 22 23 24 25 26 27 28 29 30 31 32 33 34 35 36 37 38 39 40 41 42 43 44 45 46 47 48 49 50

000
ASUS43 KMPX 232010
RWRMN
WEATHER ROUNDUP FOR MINNESOTA
NATIONAL WEATHER SERVICE TWIN CITIES/CHANHASSEN MN
300 PM CDT WED MAY 23 2018


NOTE: "FAIR" INDICATES FEW OR NO CLOUDS BELOW 12,000 FEET WITH NO
SIGNIFICANT WEATHER AND/OR OBSTRUCTIONS TO VISIBILITY. N/A MEANS
CURRENT SKY AND/OR WEATHER CONDITIONS ARE NOT AVAILABLE.

MNZ060>063-068>070-232100-
   Twin Cities Metro

CITY           SKY/WX    TMP DP  RH WIND       PRES   REMARKS
TWIN CITIES    PTSUNNY   78  61  55 S7        30.09F
ST PAUL        FAIR      78  61  55 S5        30.09F
CRYSTAL        FAIR      78  59  51 S8        30.07F
BLAINE         CLOUDY    79  61  53 S9        30.08F
LAKEVILLE      FAIR      77  61  57 SE3       30.10F
EDEN PRAIRIE   FAIR      75  62  64 S7        30.08F
SOUTH ST PAUL  FAIR      79  58  49 CALM      30.10F
LAKE ELMO      FAIR      77  61  57 S6        30.11F
$$
MNZ001>005-007-008-013>017-022>024-027-028-232100-
   Northwest Minnesota

CITY           SKY/WX    TMP DP  RH WIND       PRES   REMARKS
BEMIDJI        FAIR      80  56  43 SE9       30.05F
HALLOCK        FAIR      86  50  28 E9G17     29.97F
ROSEAU         FAIR      82  55  39 SE5       30.02S
WARROAD        FAIR      77  61  57 NE9       30.03F
THIEF RVR FALL PTSUNNY   83  57  41 S17G26    30.01F
CROOKSTON      FAIR      82  59  44 S18       29.99S
FOSSTON        FAIR      82  54  36 SE9       30.02F
DETROIT LAKES  FAIR      77  59  53 S17       30.04F
MOORHEAD       FAIR      79  61  53 S17G23    30.00S
PARK RAPIDS    CLOUDY    80  58  46 S15       30.05F
MAHNOMEN       FAIR      80  59  49 S14G23    30.02S
$$
MNZ006-009>011-018-025>026-232100-
   North Central Minnesota

CITY           SKY/WX    TMP DP  RH WIND       PRES   REMARKS
BAUDETTE       FAIR      82  54  37 S8        30.03F
FLAG ISLAND    FAIR      79  52  38 CALM      30.03F
INTL FALLS     FAIR      82  52  35 S6        30.05F
WASKISH          N/A     81  54  39 SE6       30.04F
BIG FORK       FAIR      82  55  39 S9        30.06F
LONGVILLE      FAIR      81  57  44 SE9       30.07S
GRAND RAPIDS   FAIR      78  57  48 S12       30.09F
CRANE LAKE     FAIR      81  46  30 CALM      30.08F
ORR            FAIR      82  48  30 SE6       30.05F
COOK           PTSUNNY   79  52  38 S6        30.08F
WALKER         FAIR      78  58  48 E8        30.05F
$$
MNZ012-019>021-037-232100-
   Northeast Minnesota

CITY           SKY/WX    TMP DP  RH WIND       PRES   REMARKS
DULUTH         FAIR      79  56  45 S12       30.10F
ELY            FAIR      82  43  24 SW7       30.08F
HIBBING        FAIR      79  53  40 S9        30.08F
EVELETH        FAIR      81  54  39 SW8G17    30.10F
DULUTH HARBOR  FAIR      68  61  77 E8        30.09F
TWO HARBORS    FAIR      84  61  45 S9        30.08F
SILVER BAY     FAIR      81  55  41 S10       30.09F
GRAND MARAIS     N/A     52  40  63 NE8       30.13F
G MARAIS ARPRT FAIR      75  46  35 S6        30.15S
$$
MNZ029>031-032-039>041-046>048-054>057-064-232100-
   West Central Minnesota

CITY           SKY/WX    TMP DP  RH WIND       PRES   REMARKS
FERGUS FALLS   FAIR      73  61  64 SE20G25   29.95F
WHEATON        CLOUDY    72  63  73 SE17      29.99F
MORRIS         CLOUDY    66  64  94 SE14      30.02F
ALEXANDRIA     LGT RAIN  69  61  75 SE9       30.08F
ELBOW LAKE     FAIR      69  62  77 SE14G20   30.01F
WADENA         FAIR      73  61  64 S9        30.06F
GLENWOOD       LGT RAIN  64  63  94 SE7       30.09F
APPLETON       CLOUDY    73  64  73 E10       30.02F
BENSON         CLOUDY    66  63  88 E6        30.06F
ORTONVILLE     CLOUDY    73  63  68 SE17      30.00F
MADISON        CLOUDY    75  64  69 E15G24    30.02F
WILLMAR        PTSUNNY   68  63  83 NE9       30.09F
$$
MNZ033>034-036-042>043-049>051-058-059-232100-
   Central Minnesota

CITY           SKY/WX    TMP DP  RH WIND       PRES   REMARKS
ST CLOUD       FAIR      74  58  57 E8        30.07F
SAUK CENTRE    CLOUDY    68  61  77 SW10      30.12R
PAYNESVILLE    PTSUNNY   73  61  66 CALM      30.11R
PINE RIVER     FAIR      79  61  53 S15       30.09F
BRAINERD       FAIR      80  61  52 S12G25    30.09S
STAPLES        FAIR      73  61  64 S7        30.08F
LONG PRAIRIE   PTSUNNY   73  61  64 SE9       30.10S
LITTLE FALLS   FAIR      73  61  64 SW3       30.09F
LITCHFIELD     LGT RAIN  66  66 100 E3        30.11R
BUFFALO        FAIR      73  58  60 SE8       30.08F
MAPLE LAKE     PTSUNNY   71  63  74 SE3       30.09R
HUTCHINSON     FAIR      76  68  76 SE9       30.07S
$$
MNZ037-044-045-052-053-232100-
   East Central Minnesota

CITY           SKY/WX    TMP DP  RH WIND       PRES   REMARKS
PRINCETON      FAIR      75  61  60 S3        30.09F
MORA           FAIR      75  59  57 SW3       30.11S
CAMBRIDGE      FAIR      79  61  53 S6        30.10S
RUSH CITY      FAIR      77  60  56 S5        30.10F
MOOSE LAKE     PTSUNNY   79  59  50 S7        30.07F
HINCKLEY       FAIR      77  64  65 S8        30.10F
CLOQUET        PTSUNNY   79  54  41 CALM      30.09F
MCGREGOR       PTSUNNY   81  61  50 S13       30.09S
$$
MNZ071>073-080-081-089-090-097-098-232100-
   Southwest Minnesota

CITY           SKY/WX    TMP DP  RH WIND       PRES   REMARKS
MONTEVIDEO     CLOUDY    73  63  68 E14       30.04F
GRANITE FALLS  CLOUDY    80  64  58 E9        30.06S
CANBY          CLOUDY    79  65  61 E20G25    30.02S
MARSHALL       CLOUDY    77  65  66 SE21      30.02F
REDWOOD FALLS  MOSUNNY   78  65  63 SE17      30.04F
OLIVIA         CLOUDY    79  64  61 S13       30.05R
PIPESTONE      CLOUDY    84  64  51 S21       30.00F
WINDOM         CLOUDY    77  55  47 E13       30.05F
WORTHINGTON    MOSUNNY   85  66  53 SE16G23   30.04F
JACKSON        PTSUNNY   81  68  65 SE10      30.07F
TRACY          CLOUDY    76  68  76 SE16G23   30.03F
SLAYTON        CLOUDY    75  66  74 E18       30.04F
$$
MNZ065>067-074>077-082>085-091>093-232100-
   South Central Minnesota

CITY           SKY/WX    TMP DP  RH WIND       PRES   REMARKS
MANKATO        FAIR      77  65  66 E8        30.09F
NEW ULM        MOSUNNY   77  63  61 SE9       30.07F
ST JAMES       MOSUNNY   81  64  57 E12G17    30.07F
FAIRMONT       PTSUNNY   80  69  69 S12       30.07F
GLENCOE        FAIR      80  60  51 SE13      30.07F
FARIBAULT      FAIR      81  63  54 CALM      30.10F
OWATONNA       FAIR      79  64  61 SE6       30.10F
WASECA         FAIR      77  61  57 SE8       30.11F
ALBERT LEA     FAIR      79  63  57 E6        30.10F
$$
MNZ078>079-086>088-094>096-232100-
   Southeast Minnesota

CITY           SKY/WX    TMP DP  RH WIND       PRES   REMARKS
ROCHESTER      FAIR      79  61  53 SW10G17   30.13F
RED WING       FAIR      81  55  41 S7        30.10F
STANTON        FAIR      81  60  48 NE5       30.09F
DODGE CENTER   FAIR      77  61  57 W5        30.13F
WINONA         PTSUNNY   77  61  57 S5        30.11F
AUSTIN         CLOUDY    77  64  65 S3        30.12F
PRESTON        PTSUNNY   77  63  61 S13       30.15F
$$
ABBREVIATIONS USED IN REMARKS
   TC - TEMPERATURES IN CELSIUS
  WCI - WIND CHILL INDEX
   HX - HEAT INDEX
  VSB - VISIBILITY
$$



USA.gov is the U.S. government's official web portal to all federal, state and local government web resources and services.